,,PressureMeas_1m,,PRMeasQMR101_1,,RHStat155_1m_1,,SRMeasQMS101R_1m,,TAStat155_1m_1,,GenWind_1,,GenWind_1,
2019-02-11, 00:00:06,VALID,921.312,VALID,0.0,VALID,96.958,VALID,0.03,VALID,20.899,INVALID,360.0,VALID,0.0,
2019-02-11, 00:01:06,VALID,921.313,VALID,0.0,VALID,96.842,VALID,0.034,VALID,20.916,INVALID,360.0,VALID,0.0,
2019-02-11, 00:02:06,VALID,921.311,VALID,0.0,VALID,96.737,VALID,0.024,VALID,20.93,INVALID,360.0,VALID,0.0,
2019-02-11, 00:03:06,VALID,921.307,VALID,0.0,VALID,96.685,VALID,0.023,VALID,20.95,INVALID,360.0,VALID,0.0,
2019-02-11, 00:04:06,VALID,921.295,VALID,0.0,VALID,96.593,VALID,0.032,VALID,20.976,INVALID,360.0,VALID,0.0,
2019-02-11, 00:05:06,VALID,921.29,VALID,0.0,VALID,96.468,VALID,0.017,VALID,20.993,INVALID,360.0,VALID,0.0,
2019-02-11, 00:06:06,VALID,921.293,VALID,0.0,VALID,96.377,VALID,0.022,VALID,21.013,INVALID,360.0,VALID,0.0,
2019-02-11, 00:07:06,VALID,921.268,VALID,0.0,VALID,96.317,VALID,0.023,VALID,21.041,INVALID,360.0,VALID,0.0,
2019-02-11, 00:08:06,VALID,921.27,VALID,0.0,VALID,96.161,VALID,0.027,VALID,21.034,INVALID,360.0,VALID,0.0,
2019-02-11, 00:09:06,VALID,921.262,VALID,0.0,VALID,96.219,VALID,0.019,VALID,21.005,INVALID,360.0,VALID,0.0,
2019-02-11, 00:10:06,VALID,921.263,VALID,0.0,VALID,96.459,VALID,0.011,VALID,20.966,INVALID,360.0,VALID,0.0,
2019-02-11, 00:11:06,VALID,921.227,VALID,0.0,VALID,96.676,VALID,0.038,VALID,20.908,INVALID,360.0,VALID,0.0,
2019-02-11, 00:12:06,VALID,921.228,VALID,0.0,VALID,96.919,VALID,0.028,VALID,20.86,INVALID,360.0,VALID,0.0,
2019-02-11, 00:13:06,VALID,921.189,VALID,0.0,VALID,97.094,VALID,0.017,VALID,20.817,INVALID,360.0,VALID,0.0,
2019-02-11, 00:14:06,VALID,921.192,VALID,0.0,VALID,97.21,VALID,0.013,VALID,20.79,INVALID,360.0,VALID,0.0,
2019-02-11, 00:15:06,VALID,921.176,VALID,0.0,VALID,97.288,VALID,0.006,VALID,20.797,INVALID,360.0,VALID,0.0,
2019-02-11, 00:16:06,VALID,921.171,VALID,0.0,VALID,97.278,VALID,0.003,VALID,20.821,INVALID,360.0,VALID,0.0,
2019-02-11, 00:17:06,VALID,921.169,VALID,0.0,VALID,97.22,VALID,0.025,VALID,20.844,INVALID,360.0,VALID,0.0,
2019-02-11, 00:18:06,VALID,921.162,VALID,0.0,VALID,97.124,VALID,0.031,VALID,20.873,INVALID,360.0,VALID,0.0,
2019-02-11, 00:19:06,VALID,921.166,VALID,0.0,VALID,96.995,VALID,0.035,VALID,20.929,INVALID,360.0,VALID,0.0,
2019-02-11, 00:20:06,VALID,921.164,VALID,0.0,VALID,96.747,VALID,0.033,VALID,20.965,INVALID,360.0,VALID,0.0,
2019-02-11, 00:21:06,VALID,921.155,VALID,0.0,VALID,96.627,VALID,0.025,VALID,21.033,INVALID,360.0,VALID,0.0,
2019-02-11, 00:22:06,VALID,921.155,VALID,0.0,VALID,96.352,VALID,0.021,VALID,21.085,INVALID,360.0,VALID,0.0,
2019-02-11, 00:23:06,VALID,921.126,VALID,0.0,VALID,96.138,VALID,0.028,VALID,21.126,INVALID,360.0,VALID,0.0,
2019-02-11, 00:24:06,VALID,921.131,VALID,0.0,VALID,95.981,VALID,0.028,VALID,21.15,INVALID,360.0,VALID,0.0,
2019-02-11, 00:25:06,VALID,921.145,VALID,0.0,VALID,95.806,VALID,0.006,VALID,21.146,INVALID,360.0,VALID,0.0,
2019-02-11, 00:26:06,VALID,921.133,VALID,0.0,VALID,95.857,VALID,0.017,VALID,21.095,INVALID,360.0,VALID,0.0,
2019-02-11, 00:27:06,VALID,921.13,VALID,0.0,VALID,96.061,VALID,0.024,VALID,21.03,INVALID,360.0,VALID,0.0,
2019-02-11, 00:28:06,VALID,921.126,VALID,0.0,VALID,96.257,VALID,0.059,VALID,20.967,INVALID,360.0,VALID,0.0,
2019-02-11, 00:29:06,VALID,921.096,VALID,0.0,VALID,96.469,VALID,0.06,VALID,20.925,INVALID,360.0,VALID,0.0,
2019-02-11, 00:30:06,VALID,921.077,VALID,0.0,VALID,96.633,VALID,0.056,VALID,20.895,INVALID,360.0,VALID,0.0,
2019-02-11, 00:31:06,VALID,921.067,VALID,0.0,VALID,96.721,VALID,0.06,VALID,20.875,INVALID,360.0,VALID,0.0,
2019-02-11, 00:32:06,VALID,921.044,VALID,0.0,VALID,96.823,VALID,0.04,VALID,20.864,INVALID,360.0,VALID,0.0,
2019-02-11, 00:33:06,VALID,921.033,VALID,0.0,VALID,96.887,VALID,0.047,VALID,20.866,INVALID,360.0,VALID,0.0,
2019-02-11, 00:34:06,VALID,921.014,VALID,0.0,VALID,96.882,VALID,0.052,VALID,20.87,INVALID,360.0,VALID,0.0,
2019-02-11, 00:35:06,VALID,920.997,VALID,0.0,VALID,96.872,VALID,0.041,VALID,20.87,INVALID,360.0,VALID,0.0,
2019-02-11, 00:36:06,VALID,920.99,VALID,0.0,VALID,96.884,VALID,0.056,VALID,20.846,INVALID,360.0,VALID,0.0,
2019-02-11, 00:37:06,VALID,920.949,VALID,0.0,VALID,96.916,VALID,0.056,VALID,20.819,INVALID,360.0,VALID,0.0,
2019-02-11, 00:38:06,VALID,920.93,VALID,0.0,VALID,96.98,VALID,0.063,VALID,20.801,INVALID,360.0,VALID,0.0,
2019-02-11, 00:39:06,VALID,920.93,VALID,0.0,VALID,97.024,VALID,0.056,VALID,20.787,INVALID,360.0,VALID,0.0,
2019-02-11, 00:40:06,VALID,920.908,VALID,0.0,VALID,97.141,VALID,0.069,VALID,20.782,VALID,104.0,VALID,1.413,
2019-02-11, 00:41:06,VALID,920.902,VALID,0.0,VALID,97.273,VALID,0.048,VALID,20.768,VALID,101.0,VALID,1.23,
2019-02-11, 00:42:06,VALID,920.906,VALID,0.0,VALID,97.359,VALID,0.047,VALID,20.742,VALID,100.0,VALID,1.306,
2019-02-11, 00:43:06,VALID,920.902,VALID,0.0,VALID,97.419,VALID,0.019,VALID,20.723,VALID,102.0,VALID,1.328,
2019-02-11, 00:44:06,VALID,920.909,VALID,0.0,VALID,97.531,VALID,0.025,VALID,20.714,VALID,98.0,VALID,1.663,
2019-02-11, 00:45:06,VALID,920.905,VALID,0.0,VALID,97.607,VALID,0.034,VALID,20.713,VALID,90.0,VALID,1.267,
2019-02-11, 00:46:06,VALID,920.909,VALID,0.0,VALID,97.628,VALID,0.016,VALID,20.724,VALID,97.0,VALID,1.597,
2019-02-11, 00:47:06,VALID,920.913,VALID,0.0,VALID,97.59,VALID,0.014,VALID,20.755,VALID,97.0,VALID,2.515,
2019-02-11, 00:48:06,VALID,920.903,VALID,0.0,VALID,97.282,VALID,0.014,VALID,20.862,VALID,93.0,VALID,2.105,
2019-02-11, 00:49:06,VALID,920.913,VALID,0.0,VALID,96.688,VALID,0.015,VALID,20.956,VALID,96.0,VALID,1.785,
2019-02-11, 00:50:06,VALID,920.895,VALID,0.0,VALID,96.133,VALID,-0.006,VALID,21.002,VALID,96.0,VALID,1.412,
2019-02-11, 00:51:06,VALID,920.881,VALID,0.0,VALID,95.912,VALID,0.008,VALID,21.025,VALID,96.0,VALID,1.802,
2019-02-11, 00:52:06,VALID,920.869,VALID,0.0,VALID,95.692,VALID,0.011,VALID,21.05,VALID,97.0,VALID,1.816,
2019-02-11, 00:53:06,VALID,920.86,VALID,0.0,VALID,95.397,VALID,0.006,VALID,21.088,VALID,99.0,VALID,1.795,
2019-02-11, 00:54:06,VALID,920.838,VALID,0.0,VALID,95.185,VALID,0.007,VALID,21.106,VALID,97.0,VALID,1.563,
2019-02-11, 00:55:06,VALID,920.839,VALID,0.0,VALID,95.09,VALID,0.011,VALID,21.117,VALID,94.0,VALID,1.589,
2019-02-11, 00:56:06,VALID,920.813,VALID,0.0,VALID,94.815,VALID,-0.001,VALID,21.151,VALID,100.0,VALID,1.716,
2019-02-11, 00:57:06,VALID,920.781,VALID,0.0,VALID,94.58,VALID,0.014,VALID,21.175,VALID,102.0,VALID,1.858,
2019-02-11, 00:58:06,VALID,920.769,VALID,0.0,VALID,94.529,VALID,0.018,VALID,21.183,VALID,105.0,VALID,1.965,
2019-02-11, 00:59:06,VALID,920.755,VALID,0.0,VALID,94.556,VALID,0.009,VALID,21.188,VALID,100.0,VALID,2.052,
2019-02-11, 01:00:06,VALID,920.741,VALID,0.0,VALID,94.428,VALID,0.006,VALID,21.218,VALID,94.0,VALID,1.827,
2019-02-11, 01:01:06,VALID,920.739,VALID,0.0,VALID,94.23,VALID,0.004,VALID,21.254,VALID,89.0,VALID,1.798,
2019-02-11, 01:02:06,VALID,920.724,VALID,0.0,VALID,93.92,VALID,0.015,VALID,21.297,VALID,91.0,VALID,1.294,
2019-02-11, 01:03:06,VALID,920.725,VALID,0.0,VALID,93.822,VALID,0.006,VALID,21.289,VALID,81.0,VALID,1.201,
2019-02-11, 01:04:06,VALID,920.725,VALID,0.0,VALID,93.765,VALID,0.023,VALID,21.287,VALID,90.0,VALID,1.668,
2019-02-11, 01:05:06,VALID,920.726,VALID,0.0,VALID,93.507,VALID,0.012,VALID,21.35,VALID,102.0,VALID,2.314,
2019-02-11, 01:06:06,VALID,920.713,VALID,0.0,VALID,93.162,VALID,0.007,VALID,21.428,VALID,95.0,VALID,1.985,
2019-02-11, 01:07:06,VALID,920.71,VALID,0.0,VALID,93.043,VALID,0.017,VALID,21.44,VALID,87.0,VALID,1.463,
2019-02-11, 01:08:06,VALID,920.729,VALID,0.0,VALID,93.087,VALID,0.012,VALID,21.381,VALID,96.0,VALID,1.284,
2019-02-11, 01:09:06,VALID,920.726,VALID,0.0,VALID,93.48,VALID,0.008,VALID,21.319,VALID,94.0,VALID,1.543,
2019-02-11, 01:10:06,VALID,920.714,VALID,0.0,VALID,93.753,VALID,0.007,VALID,21.286,VALID,91.0,VALID,1.35,
2019-02-11, 01:11:06,VALID,920.699,VALID,0.0,VALID,93.879,VALID,-0.005,VALID,21.282,VALID,94.0,VALID,1.252,
2019-02-11, 01:12:06,VALID,920.7,VALID,0.0,VALID,93.979,VALID,0.024,VALID,21.287,VALID,117.0,VALID,1.254,
2019-02-11, 01:13:06,VALID,920.713,VALID,0.0,VALID,94.08,VALID,0.049,VALID,21.276,VALID,110.0,VALID,1.379,
2019-02-11, 01:14:06,VALID,920.697,VALID,0.0,VALID,94.219,VALID,0.04,VALID,21.258,VALID,114.0,VALID,1.714,
2019-02-11, 01:15:06,VALID,920.711,VALID,0.0,VALID,94.363,VALID,0.038,VALID,21.226,VALID,103.0,VALID,1.52,
2019-02-11, 01:16:06,VALID,920.707,VALID,0.0,VALID,94.52,VALID,0.048,VALID,21.183,VALID,104.0,VALID,1.756,
2019-02-11, 01:17:06,VALID,920.688,VALID,0.0,VALID,94.706,VALID,0.055,VALID,21.155,VALID,97.0,VALID,1.573,
2019-02-11, 01:18:06,VALID,920.694,VALID,0.0,VALID,94.788,VALID,0.052,VALID,21.134,VALID,88.0,VALID,1.429,
2019-02-11, 01:19:06,VALID,920.68,VALID,0.0,VALID,94.792,VALID,0.064,VALID,21.112,VALID,100.0,VALID,1.469,
2019-02-11, 01:20:06,VALID,920.658,VALID,0.0,VALID,94.807,VALID,0.05,VALID,21.13,VALID,97.0,VALID,1.332,
2019-02-11, 01:21:06,VALID,920.643,VALID,0.0,VALID,94.703,VALID,0.029,VALID,21.127,VALID,105.0,VALID,1.189,
2019-02-11, 01:22:06,VALID,920.623,VALID,0.0,VALID,94.745,VALID,0.043,VALID,21.095,VALID,99.0,VALID,1.056,
2019-02-11, 01:23:06,VALID,920.616,VALID,0.0,VALID,94.801,VALID,0.046,VALID,21.072,VALID,76.0,VALID,1.091,
2019-02-11, 01:24:06,VALID,920.589,VALID,0.0,VALID,95.025,VALID,0.031,VALID,21.045,VALID,73.0,VALID,0.897,
2019-02-11, 01:25:06,VALID,920.576,VALID,0.0,VALID,95.034,VALID,0.041,VALID,20.999,VALID,87.0,VALID,0.866,
2019-02-11, 01:26:06,VALID,920.554,VALID,0.0,VALID,95.19,VALID,0.046,VALID,20.964,VALID,103.0,VALID,1.153,
2019-02-11, 01:27:06,VALID,920.536,VALID,0.0,VALID,95.432,VALID,0.027,VALID,20.983,VALID,84.0,VALID,0.966,
2019-02-11, 01:28:06,VALID,920.505,VALID,0.0,VALID,95.314,VALID,-0.059,VALID,20.972,VALID,88.0,VALID,1.285,
2019-02-11, 01:29:06,VALID,920.494,VALID,0.0,VALID,95.245,VALID,-0.055,VALID,20.944,VALID,84.0,VALID,1.111,
2019-02-11, 01:30:06,VALID,920.455,VALID,0.0,VALID,95.37,VALID,-0.05,VALID,20.934,VALID,73.0,VALID,1.353,
2019-02-11, 01:31:06,VALID,920.44,VALID,0.0,VALID,95.389,VALID,-0.054,VALID,20.951,VALID,80.0,VALID,1.387,
2019-02-11, 01:32:06,VALID,920.412,VALID,0.0,VALID,95.4,VALID,-0.062,VALID,20.961,VALID,78.0,VALID,1.328,
2019-02-11, 01:33:06,VALID,920.371,VALID,0.0,VALID,95.287,VALID,-0.068,VALID,20.937,VALID,81.0,VALID,1.49,
2019-02-11, 01:34:06,VALID,920.351,VALID,0.0,VALID,95.315,VALID,-0.06,VALID,20.947,VALID,100.0,VALID,1.6,
2019-02-11, 01:35:06,VALID,920.332,VALID,0.0,VALID,95.327,VALID,-0.061,VALID,20.955,VALID,103.0,VALID,1.661,
2019-02-11, 01:36:06,VALID,920.316,VALID,0.0,VALID,95.26,VALID,-0.069,VALID,20.945,VALID,94.0,VALID,1.184,
2019-02-11, 01:37:06,VALID,920.315,VALID,0.0,VALID,95.219,VALID,-0.056,VALID,20.914,VALID,93.0,VALID,1.239,
2019-02-11, 01:38:06,VALID,920.277,VALID,0.0,VALID,95.45,VALID,-0.047,VALID,20.885,VALID,84.0,VALID,1.354,
2019-02-11, 01:39:06,VALID,920.279,VALID,0.0,VALID,95.552,VALID,-0.047,VALID,20.856,VALID,88.0,VALID,1.109,
2019-02-11, 01:40:06,VALID,920.271,VALID,0.0,VALID,95.659,VALID,-0.054,VALID,20.835,VALID,89.0,VALID,1.695,
2019-02-11, 01:41:06,VALID,920.265,VALID,0.0,VALID,95.894,VALID,-0.056,VALID,20.815,VALID,89.0,VALID,1.441,
2019-02-11, 01:42:06,VALID,920.252,VALID,0.0,VALID,95.906,VALID,-0.046,VALID,20.795,VALID,86.0,VALID,1.729,
2019-02-11, 01:43:06,VALID,920.23,VALID,0.0,VALID,95.921,VALID,-0.005,VALID,20.784,VALID,98.0,VALID,1.792,
2019-02-11, 01:44:06,VALID,920.228,VALID,0.0,VALID,96.009,VALID,-0.022,VALID,20.798,VALID,90.0,VALID,1.565,
2019-02-11, 01:45:06,VALID,920.206,VALID,0.0,VALID,95.914,VALID,-0.021,VALID,20.796,VALID,97.0,VALID,2.079,
2019-02-11, 01:46:06,VALID,920.184,VALID,0.0,VALID,95.897,VALID,-0.022,VALID,20.786,VALID,97.0,VALID,1.936,
2019-02-11, 01:47:06,VALID,920.179,VALID,0.0,VALID,95.808,VALID,-0.018,VALID,20.797,VALID,101.0,VALID,2.076,
2019-02-11, 01:48:06,VALID,920.166,VALID,0.0,VALID,95.71,VALID,-0.018,VALID,20.814,VALID,96.0,VALID,2.056,
2019-02-11, 01:49:06,VALID,920.161,VALID,0.0,VALID,95.574,VALID,-0.015,VALID,20.849,VALID,101.0,VALID,2.517,
2019-02-11, 01:50:06,VALID,920.174,VALID,0.0,VALID,95.296,VALID,-0.029,VALID,20.902,VALID,105.0,VALID,2.171,
2019-02-11, 01:51:06,VALID,920.158,VALID,0.0,VALID,94.95,VALID,-0.03,VALID,20.962,VALID,106.0,VALID,2.329,
2019-02-11, 01:52:06,VALID,920.15,VALID,0.0,VALID,94.546,VALID,-0.004,VALID,21.007,VALID,106.0,VALID,1.877,
2019-02-11, 01:53:06,VALID,920.136,VALID,0.0,VALID,94.389,VALID,-0.017,VALID,21.012,VALID,99.0,VALID,1.544,
2019-02-11, 01:54:06,VALID,920.142,VALID,0.0,VALID,94.406,VALID,-0.031,VALID,21.0,VALID,90.0,VALID,1.604,
2019-02-11, 01:55:06,VALID,920.152,VALID,0.0,VALID,94.471,VALID,-0.029,VALID,21.006,VALID,92.0,VALID,1.786,
2019-02-11, 01:56:06,VALID,920.143,VALID,0.0,VALID,94.366,VALID,-0.018,VALID,21.016,VALID,96.0,VALID,1.54,
2019-02-11, 01:57:06,VALID,920.111,VALID,0.0,VALID,94.215,VALID,0.003,VALID,21.041,VALID,100.0,VALID,1.81,
2019-02-11, 01:58:06,VALID,920.101,VALID,0.0,VALID,94.057,VALID,0.013,VALID,21.077,VALID,95.0,VALID,1.779,
2019-02-11, 01:59:06,VALID,920.118,VALID,0.0,VALID,94.095,VALID,0.031,VALID,21.068,VALID,102.0,VALID,1.726,
2019-02-11, 02:00:06,VALID,920.11,VALID,0.0,VALID,94.331,VALID,0.045,VALID,21.04,VALID,102.0,VALID,1.825,
2019-02-11, 02:01:06,VALID,920.105,VALID,0.0,VALID,94.472,VALID,0.019,VALID,21.014,VALID,102.0,VALID,1.568,
2019-02-11, 02:02:06,VALID,920.102,VALID,0.0,VALID,94.63,VALID,0.031,VALID,20.985,VALID,107.0,VALID,1.467,
2019-02-11, 02:03:06,VALID,920.082,VALID,0.0,VALID,94.518,VALID,0.018,VALID,20.997,VALID,107.0,VALID,1.875,
2019-02-11, 02:04:06,VALID,920.071,VALID,0.0,VALID,94.331,VALID,0.029,VALID,21.063,VALID,104.0,VALID,1.893,
2019-02-11, 02:05:06,VALID,920.068,VALID,0.0,VALID,94.328,VALID,0.033,VALID,21.081,VALID,108.0,VALID,1.819,
2019-02-11, 02:06:06,VALID,920.073,VALID,0.0,VALID,94.262,VALID,0.023,VALID,21.082,VALID,105.0,VALID,1.411,
2019-02-11, 02:07:06,VALID,920.053,VALID,0.0,VALID,94.158,VALID,0.017,VALID,21.078,VALID,94.0,VALID,0.97,
2019-02-11, 02:08:06,VALID,920.042,VALID,0.0,VALID,94.167,VALID,0.021,VALID,21.067,VALID,87.0,VALID,0.672,
2019-02-11, 02:09:06,VALID,920.034,VALID,0.0,VALID,94.231,VALID,-0.003,VALID,21.039,VALID,98.0,VALID,0.282,
2019-02-11, 02:10:06,VALID,920.023,VALID,0.0,VALID,94.309,VALID,0.03,VALID,21.011,INVALID,360.0,VALID,0.023,
2019-02-11, 02:11:06,VALID,920.014,VALID,0.0,VALID,94.459,VALID,0.014,VALID,20.985,INVALID,360.0,VALID,0.0,
2019-02-11, 02:12:06,VALID,919.974,VALID,0.0,VALID,94.605,VALID,-0.014,VALID,20.951,INVALID,360.0,VALID,0.031,
2019-02-11, 02:13:06,VALID,919.957,VALID,0.0,VALID,94.728,VALID,-0.034,VALID,20.918,INVALID,360.0,VALID,0.022,
2019-02-11, 02:14:06,VALID,919.953,VALID,0.0,VALID,94.856,VALID,-0.026,VALID,20.874,VALID,42.0,VALID,0.411,
2019-02-11, 02:15:06,VALID,919.951,VALID,0.0,VALID,95.036,VALID,-0.029,VALID,20.836,VALID,43.0,VALID,0.429,
2019-02-11, 02:16:06,VALID,919.922,VALID,0.0,VALID,95.264,VALID,-0.026,VALID,20.797,VALID,43.0,VALID,0.176,
2019-02-11, 02:17:06,VALID,919.898,VALID,0.0,VALID,95.471,VALID,-0.038,VALID,20.767,VALID,41.0,VALID,0.442,
2019-02-11, 02:18:06,VALID,919.917,VALID,0.0,VALID,95.713,VALID,-0.03,VALID,20.747,VALID,44.0,VALID,0.541,
2019-02-11, 02:19:06,VALID,919.885,VALID,0.0,VALID,95.791,VALID,-0.039,VALID,20.72,VALID,54.0,VALID,0.479,
2019-02-11, 02:20:06,VALID,919.881,VALID,0.0,VALID,95.942,VALID,-0.032,VALID,20.686,VALID,54.0,VALID,0.323,
2019-02-11, 02:21:06,VALID,919.864,VALID,0.0,VALID,96.05,VALID,-0.027,VALID,20.661,INVALID,360.0,VALID,0.055,
2019-02-11, 02:22:06,VALID,919.866,VALID,0.0,VALID,96.146,VALID,-0.028,VALID,20.644,VALID,30.0,VALID,0.251,
2019-02-11, 02:23:06,VALID,919.843,VALID,0.0,VALID,96.2,VALID,-0.037,VALID,20.632,VALID,22.0,VALID,0.139,
2019-02-11, 02:24:06,VALID,919.828,VALID,0.0,VALID,96.203,VALID,-0.038,VALID,20.614,VALID,21.0,VALID,0.087,
2019-02-11, 02:25:06,VALID,919.81,VALID,0.0,VALID,96.144,VALID,-0.031,VALID,20.587,VALID,18.0,VALID,0.13,
2019-02-11, 02:26:06,VALID,919.781,VALID,0.0,VALID,96.233,VALID,-0.037,VALID,20.562,VALID,16.0,VALID,0.098,
2019-02-11, 02:27:06,VALID,919.786,VALID,0.0,VALID,96.295,VALID,-0.035,VALID,20.525,VALID,16.0,VALID,0.162,
2019-02-11, 02:28:06,VALID,919.777,VALID,0.0,VALID,96.413,VALID,-0.043,VALID,20.482,INVALID,360.0,VALID,0.01,
2019-02-11, 02:29:06,VALID,919.753,VALID,0.0,VALID,96.607,VALID,-0.053,VALID,20.452,VALID,31.0,VALID,0.184,
2019-02-11, 02:30:06,VALID,919.777,VALID,0.0,VALID,96.792,VALID,-0.063,VALID,20.421,VALID,32.0,VALID,0.261,
2019-02-11, 02:31:06,VALID,919.789,VALID,0.0,VALID,97.028,VALID,-0.05,VALID,20.41,VALID,38.0,VALID,0.707,
2019-02-11, 02:32:06,VALID,919.78,VALID,0.0,VALID,97.224,VALID,-0.051,VALID,20.421,VALID,38.0,VALID,0.613,
2019-02-11, 02:33:06,VALID,919.787,VALID,0.0,VALID,97.342,VALID,-0.045,VALID,20.456,VALID,40.0,VALID,0.691,
2019-02-11, 02:34:06,VALID,919.788,VALID,0.0,VALID,97.277,VALID,-0.054,VALID,20.464,VALID,46.0,VALID,0.493,
2019-02-11, 02:35:06,VALID,919.778,VALID,0.0,VALID,97.197,VALID,-0.065,VALID,20.488,VALID,48.0,VALID,0.328,
2019-02-11, 02:36:06,VALID,919.751,VALID,0.0,VALID,97.163,VALID,-0.053,VALID,20.508,VALID,52.0,VALID,0.3,
2019-02-11, 02:37:06,VALID,919.724,VALID,0.0,VALID,97.146,VALID,-0.058,VALID,20.535,VALID,76.0,VALID,0.351,
2019-02-11, 02:38:06,VALID,919.7,VALID,0.0,VALID,97.063,VALID,-0.058,VALID,20.554,VALID,88.0,VALID,0.478,
2019-02-11, 02:39:06,VALID,919.684,VALID,0.0,VALID,97.01,VALID,-0.054,VALID,20.584,VALID,91.0,VALID,0.38,
2019-02-11, 02:40:06,VALID,919.657,VALID,0.0,VALID,96.905,VALID,-0.055,VALID,20.601,VALID,92.0,VALID,0.51,
2019-02-11, 02:41:06,VALID,919.626,VALID,0.0,VALID,96.831,VALID,-0.04,VALID,20.602,VALID,94.0,VALID,0.691,
2019-02-11, 02:42:06,VALID,919.617,VALID,0.0,VALID,96.636,VALID,-0.037,VALID,20.587,VALID,95.0,VALID,0.602,
2019-02-11, 02:43:06,VALID,919.583,VALID,0.0,VALID,96.555,VALID,0.083,VALID,20.576,VALID,93.0,VALID,0.559,
2019-02-11, 02:44:06,VALID,919.573,VALID,0.0,VALID,96.37,VALID,0.07,VALID,20.532,VALID,92.0,VALID,0.726,
2019-02-11, 02:45:06,VALID,919.551,VALID,0.0,VALID,96.325,VALID,0.092,VALID,20.505,VALID,89.0,VALID,0.855,
2019-02-11, 02:46:06,VALID,919.526,VALID,0.0,VALID,96.186,VALID,0.08,VALID,20.432,VALID,95.0,VALID,0.951,
2019-02-11, 02:47:06,VALID,919.498,VALID,0.0,VALID,96.098,VALID,0.076,VALID,20.388,VALID,100.0,VALID,1.288,
2019-02-11, 02:48:06,VALID,919.469,VALID,0.0,VALID,96.464,VALID,0.077,VALID,20.415,VALID,103.0,VALID,1.477,
2019-02-11, 02:49:06,VALID,919.458,VALID,0.0,VALID,96.611,VALID,0.092,VALID,20.443,VALID,101.0,VALID,1.674,
2019-02-11, 02:50:06,VALID,919.449,VALID,0.0,VALID,96.563,VALID,0.078,VALID,20.456,VALID,100.0,VALID,1.716,
2019-02-11, 02:51:06,VALID,919.425,VALID,0.0,VALID,96.396,VALID,0.087,VALID,20.459,VALID,92.0,VALID,1.454,
2019-02-11, 02:52:06,VALID,919.417,VALID,0.0,VALID,95.888,VALID,0.087,VALID,20.401,VALID,89.0,VALID,1.595,
2019-02-11, 02:53:06,VALID,919.39,VALID,0.0,VALID,95.776,VALID,0.074,VALID,20.365,VALID,92.0,VALID,1.545,
2019-02-11, 02:54:06,VALID,919.402,VALID,0.0,VALID,95.819,VALID,0.078,VALID,20.334,VALID,91.0,VALID,1.388,
2019-02-11, 02:55:06,VALID,919.39,VALID,0.0,VALID,95.908,VALID,0.093,VALID,20.32,VALID,97.0,VALID,1.636,
2019-02-11, 02:56:06,VALID,919.384,VALID,0.0,VALID,96.093,VALID,0.08,VALID,20.338,VALID,96.0,VALID,1.863,
2019-02-11, 02:57:06,VALID,919.355,VALID,0.0,VALID,95.902,VALID,0.052,VALID,20.355,VALID,99.0,VALID,1.82,
2019-02-11, 02:58:06,VALID,919.341,VALID,0.0,VALID,95.444,VALID,-0.024,VALID,20.392,VALID,101.0,VALID,1.945,
2019-02-11, 02:59:06,VALID,919.331,VALID,0.0,VALID,94.942,VALID,-0.01,VALID,20.48,VALID,103.0,VALID,1.759,
2019-02-11, 03:00:06,VALID,919.349,VALID,0.0,VALID,94.291,VALID,-0.003,VALID,20.596,VALID,102.0,VALID,1.773,
2019-02-11, 03:01:06,VALID,919.328,VALID,0.0,VALID,93.78,VALID,-0.002,VALID,20.718,VALID,98.0,VALID,1.773,
2019-02-11, 03:02:06,VALID,919.328,VALID,0.0,VALID,93.26,VALID,-0.002,VALID,20.762,VALID,104.0,VALID,1.268,
2019-02-11, 03:03:06,VALID,919.333,VALID,0.0,VALID,93.245,VALID,0.002,VALID,20.711,VALID,130.0,VALID,0.778,
2019-02-11, 03:04:06,VALID,919.341,VALID,0.0,VALID,93.975,VALID,-0.011,VALID,20.668,VALID,126.0,VALID,0.653,
2019-02-11, 03:05:06,VALID,919.362,VALID,0.0,VALID,94.526,VALID,-0.005,VALID,20.631,VALID,116.0,VALID,0.529,
2019-02-11, 03:06:06,VALID,919.366,VALID,0.0,VALID,94.937,VALID,-0.024,VALID,20.588,VALID,122.0,VALID,0.791,
2019-02-11, 03:07:06,VALID,919.371,VALID,0.0,VALID,95.133,VALID,-0.011,VALID,20.552,VALID,122.0,VALID,0.695,
2019-02-11, 03:08:06,VALID,919.372,VALID,0.0,VALID,95.306,VALID,0.001,VALID,20.528,VALID,120.0,VALID,0.613,
2019-02-11, 03:09:06,VALID,919.391,VALID,0.0,VALID,95.47,VALID,0.004,VALID,20.52,VALID,116.0,VALID,0.814,
2019-02-11, 03:10:06,VALID,919.375,VALID,0.0,VALID,95.61,VALID,-0.021,VALID,20.512,VALID,119.0,VALID,1.125,
2019-02-11, 03:11:06,VALID,919.378,VALID,0.0,VALID,95.686,VALID,-0.015,VALID,20.511,VALID,115.0,VALID,1.22,
2019-02-11, 03:12:06,VALID,919.385,VALID,0.0,VALID,95.717,VALID,0.018,VALID,20.5,VALID,116.0,VALID,1.338,
2019-02-11, 03:13:06,VALID,919.368,VALID,0.0,VALID,95.736,VALID,0.073,VALID,20.486,VALID,110.0,VALID,1.589,
2019-02-11, 03:14:06,VALID,919.355,VALID,0.0,VALID,95.571,VALID,0.064,VALID,20.462,VALID,109.0,VALID,1.6,
2019-02-11, 03:15:06,VALID,919.353,VALID,0.0,VALID,94.9,VALID,0.062,VALID,20.471,VALID,98.0,VALID,1.795,
2019-02-11, 03:16:06,VALID,919.334,VALID,0.0,VALID,94.224,VALID,0.069,VALID,20.511,VALID,87.0,VALID,1.682,
2019-02-11, 03:17:06,VALID,919.314,VALID,0.0,VALID,93.956,VALID,0.074,VALID,20.541,VALID,91.0,VALID,1.768,
2019-02-11, 03:18:06,VALID,919.323,VALID,0.0,VALID,93.629,VALID,0.071,VALID,20.596,VALID,94.0,VALID,1.788,
2019-02-11, 03:19:06,VALID,919.313,VALID,0.0,VALID,93.364,VALID,0.075,VALID,20.631,VALID,87.0,VALID,1.763,
2019-02-11, 03:20:06,VALID,919.295,VALID,0.0,VALID,93.264,VALID,0.076,VALID,20.626,VALID,84.0,VALID,1.774,
2019-02-11, 03:21:06,VALID,919.266,VALID,0.0,VALID,93.533,VALID,0.054,VALID,20.576,VALID,82.0,VALID,1.944,
2019-02-11, 03:22:06,VALID,919.256,VALID,0.0,VALID,93.891,VALID,0.062,VALID,20.498,VALID,82.0,VALID,1.975,
2019-02-11, 03:23:06,VALID,919.228,VALID,0.0,VALID,94.187,VALID,0.048,VALID,20.441,VALID,83.0,VALID,1.995,
2019-02-11, 03:24:06,VALID,919.231,VALID,0.0,VALID,94.308,VALID,0.065,VALID,20.444,VALID,84.0,VALID,2.188,
2019-02-11, 03:25:06,VALID,919.214,VALID,0.0,VALID,94.182,VALID,0.066,VALID,20.469,VALID,88.0,VALID,1.73,
2019-02-11, 03:26:06,VALID,919.217,VALID,0.0,VALID,94.071,VALID,0.053,VALID,20.447,VALID,85.0,VALID,1.866,
2019-02-11, 03:27:06,VALID,919.217,VALID,0.0,VALID,94.083,VALID,0.056,VALID,20.427,VALID,87.0,VALID,1.733,
2019-02-11, 03:28:06,VALID,919.213,VALID,0.0,VALID,94.038,VALID,0.027,VALID,20.425,VALID,89.0,VALID,1.695,
2019-02-11, 03:29:06,VALID,919.212,VALID,0.0,VALID,94.018,VALID,0.031,VALID,20.438,VALID,91.0,VALID,1.775,
2019-02-11, 03:30:06,VALID,919.225,VALID,0.0,VALID,94.014,VALID,0.019,VALID,20.449,VALID,90.0,VALID,2.23,
2019-02-11, 03:31:06,VALID,919.207,VALID,0.0,VALID,94.019,VALID,0.033,VALID,20.466,VALID,91.0,VALID,1.97,
2019-02-11, 03:32:06,VALID,919.21,VALID,0.0,VALID,94.168,VALID,0.034,VALID,20.443,VALID,82.0,VALID,1.887,
2019-02-11, 03:33:06,VALID,919.174,VALID,0.0,VALID,94.511,VALID,0.017,VALID,20.399,VALID,82.0,VALID,2.029,
2019-02-11, 03:34:06,VALID,919.178,VALID,0.0,VALID,94.867,VALID,0.019,VALID,20.357,VALID,99.0,VALID,1.971,
2019-02-11, 03:35:06,VALID,919.161,VALID,0.0,VALID,95.139,VALID,0.018,VALID,20.316,VALID,103.0,VALID,2.36,
2019-02-11, 03:36:06,VALID,919.163,VALID,0.0,VALID,95.322,VALID,0.011,VALID,20.325,VALID,104.0,VALID,2.488,
2019-02-11, 03:37:06,VALID,919.136,VALID,0.0,VALID,95.192,VALID,0.0,VALID,20.353,VALID,117.0,VALID,1.796,
2019-02-11, 03:38:06,VALID,919.146,VALID,0.0,VALID,95.004,VALID,0.01,VALID,20.411,VALID,101.0,VALID,2.183,
2019-02-11, 03:39:06,VALID,919.147,VALID,0.0,VALID,94.889,VALID,0.023,VALID,20.422,VALID,93.0,VALID,1.992,